TITAN 3C TRANSTAGE DEB, 43447

Orbit data source: Space-Track

TITAN 3C TRANSTAGE DEB, 43447 is space debris in GEO originally from a launch on Sun, 09 Feb 1969 UTC launched from the Air Force Eastern Test Range (AFETR). Debris objects in space refer to the collection of defunct objects orbiting the Earth. Examples of debris include non-operational satellites, rocket bodies, and fragments generated from explosions, collisions, or faulty payload assembly.

Not visible in the next 10 days
Identifier
43447, 1969-013G
Orbit
GEO
Country
Flag of USUS
Related business
Manufacturer
Martin Marietta
Mission
Spacecraft
Bus & Motor
Unknown
Mass
Unknown
Launch date (UTC)
1969-02-09 (57 years ago)
Launch vehicle
Unknown
Launch site
Air Force Eastern Test Range (AFETR)
Object type
Payload
Rocket body
Debris
Shape & HBR
Unknown shape, 1.1 m
Radar Cross Section
RCS unknown

Expand to show TLE details & history
Last TLE update: 1 day ago

TLE from 1 day ago
0 TITAN 3C TRANSTAGE DEB
1 43447U 69013G   25287.82775648 -.00000124  00000-0  00000-0 0  9990
2 43447   0.6253  83.9294 0137151  20.2474 257.3607  0.97140143 26874
Epoch: 2025-10-14T19:51Z
TLE epoch observation values (Epoch: 2025-10-14T19:51:58.159Z)
Latitude
-0.61165°
Longitude
38.39727°
Altitude
36,823.929 km
Speed
3.033 km/s
True Right ascension
00h 00m 00s
True Declination
0° 36' 40"
Sunlit
Object was in daylight at epoch
Visualization orbit readout
Latitude
Unknown
Longitude
Unknown
Altitude
Unknown
Speed
Unknown
Apparent Right ascension
Unknown
Apparent Declination
Unknown
Sunlit
N/A
Visualization observer readout
Local Sidereal Time
18:36:33
Azimuth
Unknown
Elevation
Unknown
Doppler factor
Unknown
Orbital elements
Apogee altitude
37,279.73 km
Perigee altitude
36,098.388 km
Semi-major axis
43,067.196 km
Eccentricity
0.01372
Inclination
0.6253°
RAAN
83.9294°
Arg. of periapsis
20.2474°
True anomaly
255.83306°
Mean anomaly
257.3607°
Eccentric anomaly
256.59629°
Mean motion
0.24284 °/min
Orbital period
1,482.45 mins
BSTAR
0
Loading maneuver chart data...
Computing Atmospheric mass density...

Documentation

Showing up to 5 results
|